IRIDIUM 106 1 41917U 17003A 26118.97845258 .00000047 00000+0 98268-5 0 9997 2 41917 86.3925 109.1320 0002612 83.6784 276.4709 14.34217619486157 IRIDIUM 103 1 41918U 17003B 26118.89599752 .00000016 00000+0 -14819-5 0 9991 2 41918 86.3929 109.0665 0002238 96.3855 263.7595 14.34217414486163 IRIDIUM 109 1 41919U 17003C 26118.90234006 .00000014 00000+0 -20325-5 0 9999 2 41919 86.3930 109.1225 0002183 90.4322 269.7124 14.34217392486138 IRIDIUM 102 1 41920U 17003D 26118.94039605 .00000047 00000+0 96933-5 0 9996 2 41920 86.3925 109.0311 0002263 87.3719 272.7736 14.34217799486227 IRIDIUM 105 1 41921U 17003E 26118.89983144 .00000149 00000+0 45808-4 0 9994 2 41921 86.3946 77.4742 0002280 86.9843 273.1614 14.34398573488074 IRIDIUM 104 1 41922U 17003F 26118.95308025 .00000019 00000+0 -35323-6 0 9991 2 41922 86.3929 109.0677 0002095 96.1775 263.9659 14.34217495486219 IRIDIUM 114 1 41923U 17003G 26118.95942406 .00000054 00000+0 12201-4 0 9995 2 41923 86.3927 109.0484 0002269 93.5599 266.5856 14.34217870486194 IRIDIUM 108 1 41924U 17003H 26118.91794541 .00000008 00000+0 -42533-5 0 9999 2 41924 86.3941 77.3591 0002204 83.0217 277.1230 14.34217517488045 IRIDIUM 112 1 41925U 17003J 26118.94673869 .00000097 00000+0 27691-4 0 9996 2 41925 86.3922 108.8979 0002192 91.4417 268.7030 14.34218106486212 IRIDIUM 111 1 41926U 17003K 26118.72474804 .00000063 00000+0 15416-4 0 9996 2 41926 86.3923 109.0602 0002332 90.6643 269.4820 14.34217933486164 IRIDIUM 113 1 42803U 17039A 26118.91401763 .00000063 00000+0 15350-4 0 9992 2 42803 86.3989 342.7819 0002018 91.9569 268.1858 14.34217973464122 IRIDIUM 123 1 42804U 17039B 26118.95549719 .00000087 00000+0 23937-4 0 9997 2 42804 86.4017 14.2115 0002359 86.1877 273.9588 14.34217687462890 IRIDIUM 120 1 42805U 17039C 26118.97744422 -.00000028 00000+0 -17046-4 0 9999 2 42805 86.3974 342.5440 0002105 82.3754 277.7681 14.34217295464120 IRIDIUM 115 1 42806U 17039D 26118.68568151 .00000285 00000+0 78707-4 0 9995 2 42806 86.4514 342.7882 0002504 86.4480 273.7008 14.43281911467126 IRIDIUM 118 1 42807U 17039E 26118.98721006 .00000064 00000+0 15670-4 0 9994 2 42807 86.4014 14.1966 0002183 86.1808 273.9637 14.34217888462890 IRIDIUM 117 1 42808U 17039F 26118.72716303 .00000115 00000+0 34123-4 0 9992 2 42808 86.4013 14.2633 0002338 87.4108 272.7356 14.34218558462880 IRIDIUM 126 1 42809U 17039G 26118.82230274 .00000029 00000+0 33109-5 0 9990 2 42809 86.4016 14.2738 0002221 89.4389 270.7061 14.34217743462879 IRIDIUM 124 1 42810U 17039H 26118.96619129 .00000109 00000+0 26285-4 0 9992 2 42810 86.4455 310.9551 0002218 89.2469 270.8987 14.43281666468015 IRIDIUM 128 1 42811U 17039J 26118.81304088 .00000046 00000+0 94260-5 0 9991 2 42811 86.3990 45.7831 0002379 80.5510 279.5954 14.34217832462908 IRIDIUM 121 1 42812U 17039K 26118.77157823 .00000271 00000+0 89540-4 0 9994 2 42812 86.4015 14.3224 0002207 82.1706 277.9740 14.34220789462743 IRIDIUM 133 1 42955U 17061A 26118.91452212 .00000031 00000+0 40753-5 0 9991 2 42955 86.3992 45.8572 0002272 84.9524 275.1931 14.34217838447712 IRIDIUM 100 1 42956U 17061B 26118.83841067 .00000083 00000+0 22625-4 0 9997 2 42956 86.3990 45.8087 0002255 84.3879 275.7574 14.34217640447709 IRIDIUM 122 1 42957U 17061C 26118.87646667 .00000034 00000+0 52164-5 0 9999 2 42957 86.3990 45.7928 0002284 87.2601 272.8856 14.34217826447718 IRIDIUM 129 1 42958U 17061D 26118.90183606 .00000045 00000+0 91003-5 0 9990 2 42958 86.3991 45.8488 0001958 88.0528 272.0892 14.34217936447732 IRIDIUM 119 1 42959U 17061E 26118.93989277 .00000019 00000+0 -43660-6 0 9991 2 42959 86.3988 45.8287 0002124 88.3731 271.7708 14.34217568447756 IRIDIUM 107 1 42960U 17061F 26118.81938408 -.00000067 00000+0 -30905-4 0 9990 2 42960 86.3988 45.9001 0002356 86.3887 273.7578 14.34217298447746 IRIDIUM 132 1 42961U 17061G 26118.82572639 -.00000009 00000+0 -10287-4 0 9999 2 42961 86.3990 45.8772 0002165 84.8871 275.2572 14.34217397447749 IRIDIUM 136 1 42962U 17061H 26118.85743911 .00000024 00000+0 13820-5 0 9998 2 42962 86.3991 45.8702 0002289 87.5465 272.5992 14.34217768447760 IRIDIUM 139 1 42963U 17061J 26118.86378157 .00000009 00000+0 -37557-5 0 9993 2 42963 86.3989 45.9288 0002215 83.0695 277.0752 14.34217574447773 IRIDIUM 125 1 42964U 17061K 26118.85109666 .00000015 00000+0 -15577-5 0 9995 2 42964 86.3992 45.9944 0002337 97.2794 262.8667 14.34217615447783 IRIDIUM 135 1 43070U 17083A 26118.68568453 -.00000013 00000+0 -11768-4 0 9998 2 43070 86.3978 342.7168 0002045 86.4406 273.7024 14.34217589437055 IRIDIUM 138 1 43071U 17083B 26118.85059201 .00000042 00000+0 80928-5 0 9999 2 43071 86.3995 342.3363 0002043 95.5282 264.6147 14.34217769437065 IRIDIUM 116 1 43072U 17083C 26118.88866058 .00000212 00000+0 68604-4 0 9994 2 43072 86.3983 342.6190 0002348 79.4448 280.7013 14.34211657437103 IRIDIUM 130 1 43073U 17083D 26118.71739820 .00000015 00000+0 -16665-5 0 9996 2 43073 86.3987 342.9606 0002300 84.5750 275.5708 14.34217640437026 IRIDIUM 151 1 43074U 17083E 26118.90133285 .00000018 00000+0 -68883-6 0 9994 2 43074 86.3978 342.6699 0002026 83.9643 276.1784 14.34217680437075 IRIDIUM 134 1 43075U 17083F 26118.86962020 .00000073 00000+0 19153-4 0 9991 2 43075 86.3986 342.6909 0002262 85.9683 274.1771 14.34217858437034 IRIDIUM 137 1 43076U 17083G 26118.88230464 -.00000023 00000+0 -15400-4 0 9992 2 43076 86.3982 342.7770 0001938 72.5279 287.6128 14.34217331437109 IRIDIUM 141 1 43077U 17083H 26118.87596072 .00000223 00000+0 72552-4 0 9993 2 43077 86.3969 342.6134 0002117 88.1355 272.0084 14.34215853437102 IRIDIUM 153 1 43078U 17083J 26118.96767786 .00000014 00000+0 -19644-5 0 9999 2 43078 86.3932 311.0643 0002050 95.4329 264.7100 14.34217667438222 IRIDIUM 131 1 43079U 17083K 26118.86327732 .00000062 00000+0 14921-4 0 9996 2 43079 86.3989 342.8016 0002066 86.3677 273.7755 14.34217801437037 IRIDIUM 144 1 43249U 18030A 26118.90425566 .00000082 00000+0 22120-4 0 9999 2 43249 86.3932 311.0213 0002209 86.0266 274.1183 14.34217672423076 IRIDIUM 149 1 43250U 18030B 26118.98036642 .00000077 00000+0 20472-4 0 9994 2 43250 86.3931 310.9570 0002075 90.9284 269.2150 14.34217763423100 IRIDIUM 157 1 43251U 18030C 26118.92962292 .00000081 00000+0 22007-4 0 9999 2 43251 86.3933 311.0303 0002161 89.1904 270.9539 14.34218146423076 IRIDIUM 140 1 43252U 18030D 26118.94865300 .00000085 00000+0 23259-4 0 9998 2 43252 86.3934 311.0351 0002220 88.8917 271.2533 14.34217939423131 IRIDIUM 145 1 43253U 18030E 26118.93596592 .00000075 00000+0 19854-4 0 9997 2 43253 86.3933 311.0127 0002324 81.9080 278.2379 14.34218097423065 IRIDIUM 146 1 43254U 18030F 26118.77740078 .00000081 00000+0 21717-4 0 9998 2 43254 86.3933 311.0914 0002206 86.3831 273.7617 14.34218137423051 IRIDIUM 148 1 43255U 18030G 26118.88524314 .00000076 00000+0 20089-4 0 9999 2 43255 86.3935 311.0888 0002075 86.9146 273.2287 14.34215901423103 IRIDIUM 142 1 43256U 18030H 26118.78376209 .00000073 00000+0 18907-4 0 9990 2 43256 86.3931 311.0221 0002263 83.9327 276.2127 14.34215390423050 IRIDIUM 150 1 43257U 18030J 26118.89156678 .00000008 00000+0 -41048-5 0 9991 2 43257 86.3931 311.0914 0002071 88.3066 271.8367 14.34217600423093 IRIDIUM 143 1 43258U 18030K 26118.94230835 -.00000036 00000+0 -19988-4 0 9995 2 43258 86.3935 311.1609 0002124 85.9626 274.1813 14.34217231423030 IRIDIUM 161 1 43478U 18047C 26118.94409543 .00000186 00000+0 49217-4 0 9993 2 43478 86.4447 109.0644 0002080 91.3776 268.7664 14.43277808418037 IRIDIUM 152 1 43479U 18047D 26118.98479417 .00000062 00000+0 14936-4 0 9998 2 43479 86.3921 108.9081 0002233 91.8012 268.3440 14.34217973415431 IRIDIUM 147 1 43480U 18047E 26118.99113691 .00000050 00000+0 10640-4 0 9995 2 43480 86.3922 108.9098 0002323 86.4122 273.7339 14.34217793415431 IRIDIUM 110 1 43481U 18047F 26118.43933039 -.00000030 00000+0 -17627-4 0 9993 2 43481 86.3928 109.2313 0001867 96.1404 264.0004 14.34217126415347 IRIDIUM 162 1 43482U 18047G 26118.93779236 .00000184 00000+0 48654-4 0 9998 2 43482 86.4445 108.9587 0002420 91.1457 269.0021 14.43282213418022 IRIDIUM 160 1 43569U 18061A 26118.94331482 .00000109 00000+0 31682-4 0 9998 2 43569 86.3944 77.3839 0002129 86.1524 273.9915 14.34218188406310 IRIDIUM 166 1 43570U 18061B 26118.89893538 .00000266 00000+0 87846-4 0 9996 2 43570 86.3942 77.3534 0002350 83.7278 276.4186 14.34219302406336 IRIDIUM 158 1 43571U 18061C 26118.93697320 .00000021 00000+0 38314-6 0 9990 2 43571 86.3942 77.3475 0002319 89.1721 270.9741 14.34217722406306 IRIDIUM 165 1 43572U 18061D 26118.89257510 .00000015 00000+0 -17159-5 0 9996 2 43572 86.3944 77.4118 0002205 82.9119 277.2327 14.34217474406326 IRIDIUM 155 1 43573U 18061E 26118.85451974 .00000034 00000+0 51327-5 0 9998 2 43573 86.3940 77.2988 0002394 87.4277 272.7193 14.34217625406284 IRIDIUM 154 1 43574U 18061F 26118.90526020 .00000046 00000+0 94336-5 0 9990 2 43574 86.3943 77.4088 0002290 82.5641 277.5815 14.34217683406342 IRIDIUM 163 1 43575U 18061G 26118.95599878 .00000173 00000+0 54537-4 0 9996 2 43575 86.3942 77.3044 0002233 89.0378 271.1074 14.34219151406326 IRIDIUM 156 1 43576U 18061H 26118.86086264 .00000021 00000+0 58498-6 0 9991 2 43576 86.3941 77.3514 0002412 86.1464 274.0007 14.34217602406306 IRIDIUM 164 1 43577U 18061J 26118.98137120 .00000174 00000+0 55102-4 0 9999 2 43577 86.3942 77.3406 0002240 81.7483 278.3966 14.34217738406366 IRIDIUM 159 1 43578U 18061K 26118.94965826 -.00000034 00000+0 -19139-4 0 9995 2 43578 86.3941 77.2920 0002043 87.4490 272.6939 14.34217301406327 IRIDIUM 180 1 43922U 19002A 26118.73984674 .00000163 00000+0 51007-4 0 9994 2 43922 86.4016 14.2625 0002046 85.7711 274.3719 14.34218814381908 IRIDIUM 176 1 43923U 19002B 26118.74644751 .00000824 00000+0 12681-3 0 9993 2 43923 86.6133 14.2102 0002447 81.9188 278.2306 14.72261730391972 IRIDIUM 168 1 43924U 19002C 26118.94281932 .00000248 00000+0 81630-4 0 9995 2 43924 86.4016 14.2534 0002149 84.8268 275.3173 14.34221242381915 IRIDIUM 173 1 43925U 19002D 26118.79058928 .00000090 00000+0 24978-4 0 9993 2 43925 86.4011 14.2078 0002228 88.1517 271.9934 14.34218154381876 IRIDIUM 169 1 43926U 19002E 26118.86764642 .00000320 00000+0 98030-4 0 9995 2 43926 86.4245 45.8027 0002851 91.3256 268.8269 14.38609886383135 IRIDIUM 172 1 43927U 19002F 26118.99354567 .00000245 00000+0 80412-4 0 9992 2 43927 86.4014 14.1309 0002084 85.5306 274.6127 14.34220675381914 IRIDIUM 175 1 43928U 19002G 26118.92320190 .00000112 00000+0 27050-4 0 9993 2 43928 86.4487 311.1287 0004650 51.5601 308.6017 14.43590743391874 IRIDIUM 171 1 43929U 19002H 26118.97452514 -.00000063 00000+0 -29557-4 0 9996 2 43929 86.4017 14.4394 0002218 82.2895 277.8553 14.34217504381906 IRIDIUM 170 1 43930U 19002J 26118.95654690 .00000769 00000+0 11806-3 0 9993 2 43930 86.6133 14.1252 0002219 84.7198 275.4272 14.72257515392017 IRIDIUM 167 1 43931U 19002K 26118.96818284 .00000013 00000+0 -24509-5 0 9995 2 43931 86.4008 14.1634 0002370 81.1897 278.9567 14.34217611381908 IRIDIUM 181 1 56726U 23068S 26118.95191590 .00000296 00000+0 81850-4 0 9994 2 56726 86.4478 77.3684 0002188 82.2035 277.9415 14.43308814155337 IRIDIUM 177 1 56727U 23068T 26118.77068822 .00001052 00000+0 13490-3 0 9991 2 56727 86.1991 352.2643 0002307 92.6418 267.5067 14.80240020159054 IRIDIUM 174 1 56728U 23068U 26118.94418741 .00000815 00000+0 12543-3 0 9994 2 56728 86.6146 14.2726 0002304 89.7839 270.3642 14.72247508158778 IRIDIUM 178 1 56729U 23068V 26118.82730466 .00001148 00000+0 14772-3 0 9999 2 56729 86.6561 45.9782 0002305 80.0052 280.1430 14.80227029159067 IRIDIUM 179 1 56730U 23068W 26118.82193158 .00001197 00000+0 15413-3 0 9999 2 56730 86.6784 54.8140 0002784 81.5501 278.6036 14.80226372159063